GW5810 Weather Reports


Display with metric or nautical units.
time (UTC)temp
F
wind
direction
speed
MPH
gust
MPH
rain 1hr
in
rain 24hr
in
rain mn
in
humidity
%
barometer
mb
20260506084017 49 43 3.0 11.0 0.02 0.02 0.02 93 1012.2
20260506083517 48 321 4.0 11.0 0.02 0.02 0.02 93 1012.4
20260506083018 49 335 4.0 11.0 0.01 0.01 0.01 93 1012.4
20260506082517 48 305 4.0 11.0 0.01 0.01 0.01 93 1012.5
20260506082019 48 324 4.0 10.0 0.01 0.01 0.01 93 1012.5
20260506081517 48 345 4.0 10.0 0.00 0.00 0.00 93 1012.5
20260506081018 48 343 5.0 11.0 0.00 0.00 0.00 94 1012.4
20260506080515 48 337 5.0 12.0 0.00 0.00 0.00 94 1012.4
20260506073509 49 348 5.0 12.0 0.00 0.00 0.00 90 1012.2
20260506073342 49 345 5.0 12.0 0.00 0.00 0.00 90 1011.9
20260506072821 48 15 5.0 12.0 0.00 0.00 0.00 90 1012.0
20260506072009 48 343 6.0 12.0 0.00 0.00 0.00 90 1012.0
20260506071822 48 331 7.0 13.0 0.00 0.00 0.00 89 1011.9
20260506071009 48 353 7.0 13.0 0.00 0.00 0.00 90 1011.6
20260506070511 48 337 7.0 13.0 0.00 0.00 0.00 89 1011.6
20260506062005 47 332 7.0 15.0 0.00 0.00 0.00 91 1011.6
20260506061503 47 309 8.0 14.0 0.00 0.00 0.00 91 1011.6
20260506061312 47 322 8.0 14.0 0.00 0.00 0.00 92 1011.6
20260506060501 46 334 8.0 15.0 0.00 0.00 0.00 92 1011.6
20260506051005 43 341 6.0 11.0 0.00 0.00 0.00 95 1012.3
20260506050501 43 335 6.0 11.0 0.00 0.00 0.00 95 1012.4
20260506044957 43 310 6.0 11.0 0.00 0.00 0.00 95 1012.3
20260506044457 43 333 6.0 11.0 0.00 0.00 0.00 95 1012.3
20260506043958 43 336 6.0 11.0 0.00 0.00 0.00 95 1012.3
20260506043457 43 327 6.0 11.0 0.00 0.00 0.00 95 1012.3
20260506042957 42 343 6.0 11.0 0.00 0.00 0.00 95 1012.3
20260506042457 42 343 5.0 11.0 0.00 0.00 0.00 95 1012.4
20260506042311 42 324 5.0 10.0 0.00 0.00 0.00 95 1012.5
20260506041458 42 333 5.0 10.0 0.00 0.00 0.00 95 1012.6
20260506040957 42 311 5.0 10.0 0.00 0.00 0.00 95 1012.6
20260506040808 42 312 5.0 10.0 0.00 0.00 0.00 95 1012.7
20260506035953 42 321 5.0 10.0 0.00 0.00 0.00 95 1012.7
20260506035822 42 335 5.0 10.0 0.00 0.00 0.00 95 1012.6
20260506035047 42 338 4.0 9.0 0.00 0.00 0.00 95 1012.6
20260506033951 41 327 4.0 9.0 0.00 0.00 0.00 95 1012.9
20260506033453 41 329 3.0 6.0 0.00 0.00 0.00 95 1013.0
20260506032953 42 338 3.0 6.0 0.00 0.00 0.00 94 1013.1
20260506032453 42 327 3.0 7.0 0.00 0.00 0.00 94 1013.1
20260506031953 42 337 3.0 7.0 0.00 0.00 0.00 94 1013.1
20260506031451 42 347 3.0 7.0 0.00 0.00 0.00 94 1013.2
20260506030951 42 268 3.0 9.0 0.00 0.00 0.00 94 1013.3
20260506030449 42 302 3.0 9.0 0.00 0.00 0.00 93 1013.3
20260506025950 43 341 4.0 8.0 0.00 0.00 0.00 93 1013.3
20260506025445 43 315 4.0 10.0 0.00 0.00 0.00 93 1013.2
20260506024947 43 313 4.0 10.0 0.00 0.00 0.00 93 1013.2
20260506024449 43 307 4.0 8.0 0.00 0.00 0.00 93 1013.4
20260506023947 43 339 4.0 8.0 0.00 0.00 0.00 92 1013.2
20260506023448 43 338 4.0 10.0 0.00 0.00 0.00 92 1013.4
20260506022947 43 316 4.0 10.0 0.00 0.00 0.00 91 1013.4
20260506022451 43 310 3.0 7.0 0.00 0.00 0.00 90 1013.6
20260506021947 43 334 3.0 6.0 0.00 0.00 0.00 88 1013.6
20260506021447 44 339 4.0 8.0 0.00 0.00 0.00 87 1013.6
20260506020947 45 339 5.0 9.0 0.00 0.00 0.00 87 1013.5
20260506020448 45 344 5.0 9.0 0.00 0.00 0.00 85 1013.4
20260506015947 46 3 4.0 9.0 0.00 0.00 0.00 84 1013.4
20260506015443 46 349 4.0 9.0 0.00 0.00 0.00 84 1013.4
20260506014945 46 26 4.0 9.0 0.00 0.00 0.00 85 1013.5
20260506014750 46 341 4.0 9.0 0.00 0.00 0.00 84 1013.4
20260506013941 46 328 3.0 8.0 0.00 0.00 0.00 85 1013.4
20260506013440 46 337 3.0 9.0 0.00 0.00 0.00 85 1013.4
20260506012943 47 14 3.0 9.0 0.00 0.00 0.00 85 1013.4
20260506012443 47 340 3.0 10.0 0.00 0.00 0.00 85 1013.5
20260506011943 47 324 3.0 10.0 0.00 0.00 0.00 85 1013.5
20260506011442 47 319 3.0 8.0 0.00 0.00 0.00 86 1013.6
20260506010943 46 23 4.0 8.0 0.00 0.00 0.00 86 1013.5
20260506010442 46 340 4.0 8.0 0.00 0.00 0.00 86 1013.6
20260506010035 46 310 4.0 10.0 0.00 0.00 0.00 87 1013.6
20260506004936 46 309 4.0 10.0 0.00 0.00 0.00 87 1013.7
20260506004437 47 317 4.0 10.0 0.00 0.00 0.00 87 1013.7
20260506003937 47 327 5.0 11.0 0.00 0.00 0.00 86 1013.7
20260506003437 47 341 6.0 11.0 0.00 0.00 0.00 87 1013.7
20260506003248 47 336 6.0 11.0 0.00 0.00 0.00 86 1013.6
20260506002751 47 333 5.0 11.0 0.00 0.00 0.00 86 1013.7
20260506001937 47 329 5.0 11.0 0.00 0.00 0.00 85 1013.8
20260506001436 48 341 4.0 11.0 0.00 0.00 0.00 85 1013.8
20260506000936 48 329 5.0 12.0 0.00 0.00 0.00 84 1013.7
20260506000438 48 318 4.0 12.0 0.00 0.00 0.00 84 1013.7
20260506000241 48 326 4.0 11.0 0.00 0.00 0.00 83 1013.6
20260505235437 48 345 5.0 11.0 0.00 0.00 0.00 83 1013.5
20260505234935 48 344 5.0 12.0 0.00 0.00 0.00 82 1013.5
20260505234742 49 342 6.0 12.0 0.00 0.00 0.00 82 1013.4
20260505233933 49 330 4.0 11.0 0.00 0.00 0.00 82 1013.4
20260505233435 49 337 4.0 10.0 0.00 0.00 0.00 82 1013.5
20260505232935 49 351 4.0 10.0 0.00 0.00 0.00 82 1013.5
20260505232436 49 330 4.0 11.0 0.00 0.00 0.00 82 1013.5
20260505231936 49 347 5.0 12.0 0.00 0.00 0.00 82 1013.4
20260505231746 49 351 6.0 13.0 0.00 0.00 0.00 81 1013.5
20260505230936 49 23 5.0 13.0 0.00 0.00 0.00 81 1013.4
20260505230435 49 353 4.0 12.0 0.00 0.00 0.00 82 1013.5
20260505225935 49 307 4.0 12.0 0.00 0.00 0.00 82 1013.5
20260505225434 49 36 4.0 11.0 0.00 0.00 0.00 83 1013.6
20260505225243 49 336 4.0 11.0 0.00 0.00 0.00 83 1013.6
20260505224433 49 343 4.0 11.0 0.00 0.00 0.00 82 1013.6
20260505223935 49 326 4.0 12.0 0.00 0.00 0.00 82 1013.7
20260505223435 49 334 4.0 12.0 0.00 0.00 0.00 83 1013.7
20260505222934 49 332 4.0 12.0 0.00 0.00 0.00 83 1013.8
20260505222434 50 5 4.0 13.0 0.00 0.00 0.00 83 1013.7
20260505221932 50 58 4.0 13.0 0.00 0.00 0.00 81 1013.7
20260505221433 50 332 4.0 13.0 0.00 0.00 0.00 80 1013.7
20260505220933 50 333 3.0 11.0 0.00 0.00 0.00 80 1013.8
20260505220432 50 350 3.0 9.0 0.00 0.00 0.00 80 1013.8
20260505215933 50 28 3.0 9.0 0.00 0.00 0.00 80 1013.7
20260505215431 50 349 3.0 11.0 0.00 0.00 0.00 81 1013.7
20260505214931 50 341 3.0 11.0 0.00 0.00 0.00 81 1013.7
20260505214432 50 316 3.0 10.0 0.00 0.00 0.00 82 1013.8
20260505213934 50 316 3.0 10.0 0.00 0.00 0.00 82 1013.7
20260505213434 50 324 3.0 11.0 0.00 0.00 0.00 83 1013.6
20260505212932 50 348 4.0 11.0 0.00 0.00 0.00 83 1013.6
20260505212432 50 348 4.0 11.0 0.00 0.00 0.00 83 1013.6
20260505212301 51 73 3.0 11.0 0.00 0.00 0.00 83 1013.6
20260505211433 50 322 3.0 10.0 0.00 0.00 0.00 83 1013.6
20260505210932 51 313 3.0 10.0 0.00 0.00 0.00 83 1013.6
20260505210433 51 326 2.0 9.0 0.00 0.00 0.00 83 1013.7
20260505205931 51 22 2.0 9.0 0.00 0.00 0.00 83 1013.7
20260505205431 51 326 3.0 10.0 0.00 0.00 0.00 82 1013.7
20260505204931 51 318 3.0 10.0 0.00 0.00 0.00 82 1013.7
20260505204744 51 251 2.0 8.0 0.00 0.00 0.00 82 1013.7
20260505203931 51 21 3.0 10.0 0.00 0.00 0.00 82 1013.7
20260505203431 51 80 4.0 11.0 0.00 0.00 0.00 82 1013.6
20260505202931 51 331 4.0 11.0 0.00 0.00 0.00 82 1013.6
20260505202431 51 325 3.0 11.0 0.00 0.00 0.00 82 1013.6
20260505202300 51 334 3.0 10.0 0.00 0.00 0.00 81 1013.6
20260505201431 51 40 3.0 10.0 0.00 0.00 0.00 81 1013.6
20260505200932 51 66 3.0 10.0 0.00 0.00 0.00 81 1013.6
20260505200433 51 344 3.0 8.0 0.00 0.00 0.00 81 1013.4
20260505195933 51 3 2.0 7.0 0.00 0.00 0.00 81 1013.4
20260505195746 51 355 2.0 7.0 0.00 0.00 0.00 80 1013.4
20260505194948 51 24 2.0 8.0 0.00 0.00 0.00 80 1013.3
20260505194435 51 13 2.0 10.0 0.00 0.00 0.00 80 1013.4
20260505193933 51 32 2.0 10.0 0.00 0.00 0.00 80 1013.3
20260505193433 51 339 2.0 8.0 0.00 0.00 0.00 80 1013.3
20260505192932 52 343 3.0 9.0 0.00 0.00 0.00 80 1013.3
20260505192432 52 349 3.0 9.0 0.00 0.00 0.00 79 1013.3
20260505191937 52 2 4.0 11.0 0.00 0.00 0.00 78 1013.2
20260505191432 52 359 4.0 11.0 0.00 0.00 0.00 78 1013.2
20260505191248 52 347 3.0 11.0 0.00 0.00 0.00 77 1013.2
20260505190433 52 9 2.0 9.0 0.00 0.00 0.00 76 1013.2
20260505190239 53 343 3.0 11.0 0.00 0.00 0.00 76 1013.2
20260505185434 53 352 3.0 11.0 0.00 0.00 0.00 76 1013.1
20260505184932 53 11 3.0 12.0 0.00 0.00 0.00 76 1013.1
20260505184433 53 9 3.0 12.0 0.00 0.00 0.00 76 1012.9
20260505183932 53 341 2.0 9.0 0.00 0.00 0.00 75 1012.8
20260505183433 53 28 2.0 9.0 0.00 0.00 0.00 75 1012.8
20260505182933 54 37 3.0 10.0 0.00 0.00 0.00 74 1012.9
20260505182432 54 213 3.0 10.0 0.00 0.00 0.00 73 1012.9
20260505181932 54 337 3.0 9.0 0.00 0.00 0.00 72 1012.8
20260505181744 54 338 2.0 8.0 0.00 0.00 0.00 71 1012.7
20260505181245 54 58 2.0 9.0 0.00 0.00 0.00 71 1012.7
20260505180432 54 240 3.0 9.0 0.00 0.00 0.00 72 1012.7
20260505175933 55 48 3.0 9.0 0.00 0.00 0.00 72 1012.7
20260505175433 55 58 2.0 9.0 0.00 0.00 0.00 71 1012.7
20260505174934 55 30 2.0 8.0 0.00 0.00 0.00 71 1012.7
20260505174432 55 68 3.0 8.0 0.00 0.00 0.00 71 1012.7
20260505173932 55 63 3.0 8.0 0.00 0.00 0.00 71 1012.8
20260505173433 56 96 4.0 12.0 0.00 0.00 0.00 70 1012.7
20260505172931 56 351 4.0 12.0 0.00 0.00 0.00 68 1012.6
20260505172432 56 62 3.0 11.0 0.00 0.00 0.00 68 1012.6
20260505171931 56 319 3.0 11.0 0.00 0.00 0.00 67 1012.6
20260505171432 56 36 4.0 15.0 0.00 0.00 0.00 68 1012.5
20260505170931 57 93 3.0 15.0 0.00 0.00 0.00 67 1012.7
20260505170432 57 66 3.0 11.0 0.00 0.00 0.00 66 1012.6
20260505170244 58 76 3.0 11.0 0.00 0.00 0.00 65 1012.4
20260505165747 58 63 4.0 11.0 0.00 0.00 0.00 66 1012.3
20260505164932 58 230 4.0 11.0 0.00 0.00 0.00 65 1012.1
20260505164431 59 230 4.0 23.0 0.00 0.00 0.00 64 1011.8
20260505163931 59 228 4.0 23.0 0.00 0.00 0.00 65 1011.9
20260505163431 59 228 4.0 14.0 0.00 0.00 0.00 64 1011.6
20260505162931 59 227 4.0 14.0 0.00 0.00 0.00 65 1011.7
20260505162431 60 231 3.0 14.0 0.00 0.00 0.00 64 1011.5
20260505161934 60 229 3.0 8.0 0.00 0.00 0.00 63 1011.3
20260505161431 60 227 3.0 8.0 0.00 0.00 0.00 64 1010.8
20260505160932 59 229 3.0 8.0 0.00 0.00 0.00 65 1011.2
20260505160434 60 226 4.0 11.0 0.00 0.00 0.00 65 1011.9
20260505152932 60 229 4.0 8.0 0.00 0.00 0.00 63 1010.7
20260505152432 60 228 3.0 8.0 0.00 0.00 0.00 64 1010.8
20260505151932 60 231 3.0 9.0 0.00 0.00 0.00 64 1011.5
20260505151432 60 227 3.0 9.0 0.00 0.00 0.00 64 1011.5
20260505150930 60 231 3.0 6.0 0.00 0.00 0.00 64 1011.3
20260505150430 60 228 3.0 7.0 0.00 0.00 0.00 64 1011.4
20260505150242 60 230 3.0 9.0 0.00 0.00 0.00 65 1011.5
20260505140427 60 226 2.0 6.0 0.00 0.00 0.00 65 1011.7
20260505124926 61 231 4.0 10.0 0.00 0.00 0.00 65 1011.7
20260505124421 61 233 4.0 7.0 0.00 0.00 0.00 64 1011.9
20260505123921 61 227 3.0 6.0 0.00 0.00 0.00 64 1011.7
20260505123435 61 229 3.0 7.0 0.00 0.00 0.00 62 1011.2
20260505122928 61 226 3.0 9.0 0.00 0.00 0.00 62 1011.5
20260505122422 61 230 3.0 9.0 0.00 0.00 0.00 64 1011.6
20260505121921 61 331 4.0 11.0 0.00 0.00 0.00 65 1011.9
20260505121421 61 246 4.0 12.0 0.00 0.00 0.00 65 1012.1
20260505121232 61 359 6.0 13.0 0.00 0.00 0.00 65 1012.3
20260505120421 62 344 6.0 13.0 0.00 0.00 0.00 67 1012.4
20260505115923 63 345 5.0 13.0 0.00 0.00 0.00 62 1011.9
20260505115733 64 343 4.0 11.0 0.00 0.00 0.00 55 1009.7
20260505114923 63 355 3.0 11.0 0.00 0.00 0.00 53 1009.5
20260505114421 62 153 2.0 11.0 0.00 0.00 0.00 54 1009.8
20260505113921 61 64 2.0 7.0 0.00 0.00 0.00 55 1011.4
20260505113419 61 347 3.0 11.0 0.00 0.00 0.00 55 1012.7
20260505112919 62 357 4.0 11.0 0.00 0.00 0.00 56 1012.6
20260505112419 63 340 4.0 11.0 0.00 0.00 0.00 56 1010.9
20260505111920 63 48 3.0 11.0 0.00 0.00 0.00 55 1010.2
20260505111421 62 50 2.0 11.0 0.00 0.00 0.00 55 1010.2
20260505110920 62 240 3.0 11.0 0.00 0.00 0.00 56 1010.7
20260505110423 61 35 3.0 10.0 0.00 0.00 0.00 56 1011.3
20260505101914 60 37 3.0 9.0 0.00 0.00 0.00 63 1011.0
20260505101414 59 37 3.0 8.0 0.00 0.00 0.00 66 1011.2
20260505100915 59 33 3.0 7.0 0.00 0.00 0.00 66 1011.3
20260505100415 59 37 4.0 7.0 0.00 0.00 0.00 67 1011.3
20260505100012 59 34 3.0 9.0 0.00 0.00 0.00 67 1011.3
20260505094914 59 74 2.0 9.0 0.00 0.00 0.00 67 1011.1
20260505094728 58 214 2.0 8.0 0.00 0.00 0.00 66 1010.9
20260505093915 58 343 2.0 6.0 0.00 0.00 0.00 69 1011.4
20260505093413 57 23 2.0 7.0 0.00 0.00 0.00 70 1011.8
20260505092916 57 134 2.0 7.0 0.00 0.00 0.00 70 1011.5
20260505092412 57 116 2.0 7.0 0.00 0.00 0.00 68 1011.3
20260505091915 56 85 2.0 7.0 0.00 0.00 0.00 72 1011.2
20260505091414 56 296 2.0 9.0 0.00 0.00 0.00 74 1011.3
20260505090913 56 150 2.0 9.0 0.00 0.00 0.00 76 1011.1
20260505090415 55 14 2.0 9.0 0.00 0.00 0.00 78 1011.8
20260505085916 55 252 3.0 9.0 0.00 0.00 0.00 78 1012.0
20260505085415 55 284 2.0 9.0 0.00 0.00 0.00 79 1012.0
20260505084915 54 325 2.0 6.0 0.00 0.00 0.00 80 1012.2